Regional Weather Roundup
Issued by NWS

Home | Current Version | Previous Version | Text Only | Print | Product List | Glossary On
Versions: 1 2 3 4 5 6 7 8 9 10 11 12 13 14 15 16 17 18 19 20 21 22 23 24 25 26 27 28 29 30 31 32 33 34 35 36 37 38 39 40 41 42 43 44 45 46 47 48 49 50
000
ASUS46 KSEW 291010
RWRWA

WASHINGTON REGIONAL WEATHER ROUNDUP
NATIONAL WEATHER SERVICE SEATTLE WA
300 AM PDT SUN MAR 29 2015

NOTE:"FAIR" INDICATES FEW OR NO CLOUDS BELOW 12,000 FEET WITH NO
SIGNIFICANT WEATHER AND/OR OBSTRUCTIONS TO VISIBILITY.

WAZ505-507>509-291100-
SEATTLE, TACOMA, EVERETT, AND VICINITY

CITY           SKY/WX    TMP DP  RH WIND       PRES   REMARKS
EVERETT        LGT RAIN  50  41  71 SE12      30.28F
BOEING FIELD   CLOUDY    53  42  66 SE6       30.30F
RENTON         CLOUDY    51  45  79 SE3       30.30F
SEATAC AIRPORT CLOUDY    50  43  77 SE5       30.31F
JBLM-MCCHORD   NOT AVBL
PUYALLUP       CLOUDY    46  46 100 CALM      30.30F
BREMERTON      CLOUDY    48  45  87 S8        30.30F
JBLM-FT LEWIS  NOT AVBL
TACOMA NARROWS CLOUDY    50  42  74 SE3       30.31F
$$

WAZ001-503-506-510-514-515-291100-
NORTH INTERIOR

CITY           SKY/WX    TMP DP  RH WIND       PRES   REMARKS
BELLINGHAM     LGT RAIN  54  40  59 SE14G20   30.22F
FRIDAY HARBOR  CLOUDY    49  43  80 E6        30.24F
EASTSOUND      CLOUDY    52  39  62 S8G17     30.21F
PORT ANGELES   CLOUDY    47  45  93 SE3       30.22F
NAS WHIDBEY    CLOUDY    55  38  52 SE22G29   30.23F
ARLINGTON      CLOUDY    52  43  71 SE12      30.30F
BURLINGTON     CLOUDY    52  43  71 MISG      30.26S
$$

WAZ020-022-039-040-504-511-512-291100-
SOUTHWEST INTERIOR

CITY           SKY/WX    TMP DP  RH WIND       PRES   REMARKS
SHELTON        CLOUDY    45  43  93 CALM      30.28F
OLYMPIA        CLOUDY    45  42  89 CALM      30.30F
CHEHALIS       CLOUDY    46  45  93 CALM      30.30F
KELSO          CLOUDY    46  43  87 CALM      30.36S
VANCOUVER      CLOUDY    49  43  80 E3        30.32F
SCAPPOOSE, OR  CLOUDY    47  44  90 CALM      30.32F
PORTLAND, OR   CLOUDY    49  44  83 E6        30.33F
$$

WAZ021-516-517-291100-
WASHINGTON COAST

CITY           SKY/WX    TMP DP  RH WIND       PRES   REMARKS
FORKS          LGT RAIN  48  46  93 SE12      30.22F FOG
HOQUIAM        CLOUDY    49  46  90 NE7       30.29F
ASTORIA, OR    CLOUDY    47  44  90 CALM      30.30F
$$

WAZ019-023-024-040-518-519-291100-
CASCADE MOUNTAINS AND COLUMBIA GORGE

CITY           SKY/WX    TMP DP  RH WIND       PRES   REMARKS
TROUTDALE, OR  CLOUDY    49  43  80 CALM      30.32F
THE DALLES, OR MOCLDY    50  43  77 NW6       30.31F
$$

WAZ026-027-041>044-520-521-291100-
EAST SLOPES

CITY           SKY/WX    TMP DP  RH WIND       PRES   REMARKS
OMAK           CLOUDY    47  34  60 S7        30.22F
WENATCHEE      CLOUDY    50  37  61 NW5       30.25F
ELLENSBURG     CLOUDY    44  37  76 W6        30.26F
YAKIMA         CLOUDY    43  36  76 W6        30.29F
$$

WAZ028-034-035-291100-
COLUMBIA BASIN

CITY           SKY/WX    TMP DP  RH WIND       PRES   REMARKS
EPHRATA        MOCLDY    40  35  83 SE6       30.24F
MOSES LAKE     MOCLDY    42  36  79 SE7       30.26F
PASCO          MOCLDY    45  38  76 E6        30.29F
HERMISTON, OR  CLOUDY    44  37  76 SE5       30.29F
$$

WAZ036>038-291100-
NORTHEAST WASHINGTON

CITY           SKY/WX    TMP DP  RH WIND       PRES   REMARKS
SPOKANE GEIGER CLOUDY    42  35  76 S7        30.26F
SPOKANE FELTS  PTCLDY    42  36  79 NE5       30.29F
FAIRCHILD AFB  NOT AVBL
COEURDALENE,ID PTCLDY    39  34  81 S7        30.29F
DEER PARK      PTCLDY    35  32  88 CALM      30.28F
$$

WAZ029>033-291100-
SOUTHEAST WASHINGTON

CITY           SKY/WX    TMP DP  RH WIND       PRES   REMARKS
PULLMAN        MOCLDY    39  34  82 NE3       30.32S
LEWISTON, ID   MOCLDY    42  34  73 CALM      30.32S
WALLA WALLA    CLOUDY    47  37  68 E7        30.29F
PENDLETON, OR  CLOUDY    41  37  86 S7        30.29F
$$



USA.gov is the U.S. government's official web portal to all federal, state and local government web resources and services.